Theta_e
309 309 309 308 308 308 308 308 308 309 311 313 313 313 312 312 310 310 310 310 310 310 310 307 307 307 307 307 307 307 308 308 308 309 309 309 309 307 306 306 307 308 309 308 307 307 308 308 308 308 308 309 310 311 311 311 311 312 314 315 315 316 313 310 310 309 310 310 309 308 309 309 309 308 308 308 308 308 308 309 309 309 308 308 308 308 308 308
309 309 309 309 309 308 308 308 307 308 308 310 313 314 313 313 311 310 309 309 309 310 309 307 308 307 307 308 307 308 308 308 309 310 310 309 307 306 306 306 307 308 308 307 307 308 308 308 308 308 308 309 311 311 312 311 310 312 315 316 315 313 310 308 308 308 308 309 309 308 308 309 309 309 308 307 308 308 307 308 308 308 308 308 308 308 308 308
309 309 310 310 309 309 309 309 308 308 308 308 311 313 314 313 312 310 309 309 309 310 309 307 308 308 308 308 308 308 307 308 311 311 310 308 306 306 306 306 306 307 306 306 307 308 308 308 309 309 309 310 311 311 311 311 311 312 313 316 314 310 308 307 307 307 306 308 309 309 308 308 309 309 308 307 308 308 308 308 308 308 308 308 309 308 308 308
308 309 309 309 310 310 310 309 309 309 308 308 308 310 313 313 312 311 309 308 308 309 309 307 308 309 308 308 309 308 307 310 312 310 308 307 306 306 306 306 306 306 306 306 307 307 308 308 308 308 309 310 311 311 310 310 311 311 312 314 312 308 309 307 306 306 305 307 308 308 307 308 308 308 307 307 308 308 308 309 309 309 309 310 309 309 309 308
306 307 308 308 309 309 310 310 310 309 309 309 308 308 310 313 314 312 310 309 308 309 309 308 307 308 308 307 308 307 309 312 310 308 307 306 306 306 306 306 306 306 307 307 307 307 307 308 308 308 309 309 310 311 310 310 310 310 310 311 310 308 309 307 306 305 305 306 307 307 307 307 308 307 307 307 307 308 309 310 310 310 310 310 310 310 309 309
305 305 306 307 307 308 309 309 310 310 310 309 309 308 308 309 313 314 312 310 309 309 310 310 307 307 308 307 307 307 310 312 308 307 307 306 306 306 306 306 306 307 307 307 307 308 308 308 309 309 310 310 311 311 310 309 309 309 310 309 308 307 307 307 306 305 305 306 307 307 307 307 307 307 307 307 307 308 310 310 310 310 311 310 310 310 310 309
306 306 306 306 306 307 307 308 308 309 310 310 310 309 308 308 310 313 313 311 310 309 310 311 309 306 307 307 307 308 309 311 309 307 306 306 306 306 306 307 307 307 307 307 307 308 308 309 309 309 310 310 310 310 309 308 308 308 309 309 307 306 306 306 305 305 305 305 306 307 306 306 307 307 308 307 308 309 309 309 309 309 310 309 309 309 309 309
306 306 306 306 306 306 306 307 307 308 309 310 310 310 310 308 308 311 313 312 309 309 310 311 310 307 307 307 307 310 312 311 309 307 306 306 306 306 307 307 307 307 307 307 307 308 308 309 309 309 310 310 309 310 308 308 308 307 308 308 307 306 306 305 305 305 304 304 305 305 305 306 306 307 307 307 308 308 309 309 309 309 308 308 308 308 308 308
307 307 307 307 307 307 307 307 306 307 308 309 311 311 311 310 308 309 313 313 309 309 309 311 311 308 306 306 309 314 312 310 307 306 306 306 306 306 307 307 307 307 307 307 307 308 308 308 309 309 309 309 309 309 307 308 308 308 308 308 307 306 306 305 305 305 304 304 305 305 305 305 306 307 307 308 309 309 308 308 308 308 308 308 308 308 308 307
306 306 307 307 307 307 307 307 307 307 307 308 310 312 312 311 310 309 312 313 310 309 309 310 311 309 306 306 312 315 310 308 307 306 306 306 306 306 306 307 307 307 307 307 307 307 307 308 309 308 308 308 308 308 307 307 308 307 307 308 307 306 306 305 305 305 305 304 304 305 305 306 307 307 307 309 310 310 309 308 308 308 308 308 308 308 308 308
306 305 306 306 307 308 308 308 308 307 307 307 308 311 313 313 312 310 311 313 311 309 310 310 311 310 307 306 311 313 308 307 307 306 307 306 306 306 306 306 306 307 307 307 307 307 307 307 307 307 307 308 308 307 307 307 307 307 307 307 307 306 306 305 305 305 305 305 305 305 304 305 306 306 308 309 310 310 309 309 309 308 308 308 308 308 309 309
311 309 308 307 306 306 307 308 308 308 307 307 307 309 313 314 313 312 311 313 312 310 310 311 312 310 307 309 312 310 307 306 306 307 306 306 306 306 306 306 306 306 306 306 307 306 306 307 307 307 307 307 307 307 307 306 306 306 306 307 307 306 306 306 305 305 305 306 306 305 306 308 307 307 309 309 309 309 309 309 308 308 308 308 309 309 309 310
314 314 313 312 310 308 307 307 308 309 308 308 307 308 312 314 314 313 311 313 312 311 311 312 313 310 307 312 312 307 306 306 306 307 306 306 307 307 306 306 306 306 306 306 306 306 306 306 306 307 307 307 307 307 306 305 305 306 305 306 308 308 308 307 306 307 306 306 306 306 310 312 310 309 310 310 309 308 308 308 308 309 309 309 310 310 310 310
315 315 316 316 315 314 311 308 307 308 308 308 307 307 311 314 315 313 311 313 313 313 313 313 313 310 309 313 311 306 307 307 307 307 307 307 307 307 307 306 306 306 306 306 306 306 306 306 306 306 306 306 306 306 306 305 305 307 307 308 310 312 311 308 307 308 307 307 307 307 311 312 311 311 310 310 310 309 308 308 309 309 310 310 310 310 310 310
315 315 316 316 316 316 316 313 309 307 308 309 308 308 310 312 314 312 311 312 313 314 314 313 311 309 311 314 310 307 307 307 307 307 307 307 307 307 307 306 306 306 306 306 306 306 306 306 306 306 306 305 305 306 308 308 306 307 309 312 313 312 312 308 307 308 308 308 307 308 312 311 311 312 311 310 310 309 309 308 309 310 310 310 310 310 311 311
313 314 315 315 316 316 317 317 314 310 308 308 308 308 310 312 312 311 311 311 313 315 313 312 310 308 313 316 310 307 308 307 308 307 307 307 307 307 307 306 306 307 308 307 307 306 305 306 306 306 305 305 306 307 310 311 310 310 310 313 314 313 313 310 307 307 307 308 308 309 311 309 310 311 311 310 310 309 308 308 309 310 310 310 310 311 311 312
312 312 313 313 315 316 316 317 317 314 310 308 309 310 311 312 312 312 312 312 314 313 311 311 309 308 311 313 309 307 308 308 307 308 307 307 306 307 307 307 306 307 309 309 309 307 306 308 309 308 306 307 308 309 312 314 314 313 311 312 314 312 311 310 309 307 306 308 309 308 309 308 309 310 310 311 310 309 308 309 309 310 310 310 310 312 312 313
310 310 311 311 312 314 315 316 317 317 314 310 309 310 312 313 314 313 313 313 313 312 312 309 307 313 315 312 310 310 309 308 308 308 307 306 307 307 307 308 308 308 309 311 311 311 310 311 311 311 310 309 309 310 314 316 315 314 313 312 313 311 309 309 311 308 306 308 308 309 309 309 309 310 310 311 311 310 309 309 310 310 310 310 311 312 313 313
308 309 309 310 310 311 313 315 317 318 317 313 309 310 313 315 315 314 313 314 315 317 318 313 310 318 320 313 310 310 308 307 308 307 307 306 306 307 307 309 308 308 311 315 315 313 313 313 312 313 315 313 311 311 313 314 312 313 313 313 312 311 309 310 310 306 306 308 308 309 309 309 310 310 310 311 311 311 310 311 310 310 310 310 311 312 313 313
305 307 308 309 310 310 312 314 315 315 316 314 311 311 313 315 319 320 315 314 317 317 317 314 312 314 315 313 311 309 309 309 308 307 307 307 306 307 307 308 310 311 313 317 317 314 313 315 317 318 316 312 310 310 310 310 311 311 312 312 312 311 310 311 310 306 305 309 310 310 310 310 310 310 310 310 311 311 310 311 311 311 310 310 311 311 312 313
302 303 306 308 309 309 311 314 314 312 312 312 310 310 311 311 318 319 313 314 316 314 314 314 312 311 313 313 311 309 309 309 309 307 307 307 306 308 310 311 315 316 315 316 316 314 313 315 319 316 311 308 307 308 309 310 311 311 311 311 312 312 311 310 308 306 306 308 309 309 310 309 309 309 310 310 311 312 311 311 311 311 310 310 311 312 313 313
301 301 303 306 309 309 311 313 312 309 308 309 309 310 309 308 311 311 309 312 314 313 315 313 311 312 310 309 308 307 308 310 312 310 307 306 306 310 313 313 316 318 317 317 317 315 315 317 314 309 306 307 308 307 308 310 311 312 312 311 311 313 312 309 307 307 307 308 309 310 310 309 309 309 310 311 312 312 312 311 311 312 312 311 312 313 314 314
301 301 301 303 307 309 310 312 312 308 307 309 309 309 308 308 309 308 309 312 315 316 315 312 311 312 309 308 307 307 310 313 315 313 308 306 308 309 312 313 315 316 318 320 318 315 317 316 309 305 306 308 309 308 308 309 310 312 312 311 312 313 310 308 308 308 308 308 309 310 309 309 310 312 313 313 311 310 311 311 311 312 313 314 313 314 314 314
302 302 302 302 305 309 310 312 311 307 307 309 308 308 307 308 309 309 310 313 317 317 312 309 309 309 307 307 307 308 311 310 311 313 308 307 311 312 311 312 315 315 316 319 318 317 318 311 304 304 306 308 309 310 309 310 311 313 315 315 314 312 310 308 309 309 309 309 309 310 311 314 315 315 316 315 312 310 310 310 310 310 312 315 315 314 314 313
302 302 302 301 303 308 310 311 309 306 308 308 308 308 308 308 309 309 310 315 318 315 311 310 309 309 308 308 308 308 309 308 309 309 307 306 310 312 312 310 312 315 318 319 317 318 316 306 303 307 308 309 311 311 312 314 313 313 316 316 313 311 311 311 311 312 312 311 311 310 312 317 317 313 315 316 316 315 312 312 311 310 311 313 314 314 313 313
301 302 302 302 302 307 309 310 309 307 308 308 307 308 308 308 308 308 311 317 319 316 313 312 311 312 311 310 308 307 311 312 308 306 307 307 307 310 314 312 310 314 318 316 313 316 312 304 305 310 310 312 314 312 313 314 312 311 313 312 311 311 313 314 312 312 312 312 312 311 311 313 312 311 315 316 318 317 315 316 314 311 312 312 312 313 312 312
301 301 302 302 301 305 310 312 311 309 308 307 307 308 308 308 308 309 315 319 320 318 314 312 312 312 310 309 308 311 318 315 308 307 307 306 307 307 312 315 312 312 313 312 311 314 311 307 308 310 311 314 315 313 313 312 312 313 311 310 312 311 312 313 312 312 313 313 313 313 312 312 312 313 316 316 316 317 315 317 317 313 313 314 313 313 312 312
301 301 301 301 301 303 308 311 312 310 308 307 307 308 308 308 308 312 319 320 318 317 315 313 312 310 310 310 309 311 315 312 312 313 307 305 308 308 311 316 314 313 312 312 313 312 310 312 312 311 312 314 313 312 311 310 313 315 310 310 311 310 312 313 312 314 314 314 315 315 314 313 316 317 315 314 314 316 316 317 318 315 313 314 314 313 313 312
301 301 301 301 301 303 307 310 311 311 309 307 306 307 308 308 309 315 319 317 317 316 313 314 313 311 312 315 313 311 310 311 313 312 307 307 309 308 312 314 312 313 312 312 315 313 309 308 309 311 313 312 309 307 307 310 312 311 307 309 311 310 312 312 312 313 313 314 316 317 315 313 315 317 315 314 315 317 317 316 317 315 313 314 314 313 313 312
301 301 301 301 301 303 306 308 309 311 311 308 306 306 307 310 314 319 318 316 319 317 312 314 314 312 314 317 316 313 312 312 311 309 310 310 308 307 309 309 310 313 313 312 315 313 307 304 306 309 310 308 306 305 306 308 309 307 309 313 315 313 312 311 312 311 312 317 317 315 315 311 313 320 320 317 316 315 314 313 314 315 313 314 314 313 313 312
301 301 301 301 301 302 305 308 310 311 312 310 307 306 310 315 317 318 316 315 318 317 314 315 315 314 315 315 315 315 315 314 311 312 314 312 311 310 309 309 310 312 314 314 314 311 308 307 307 306 304 305 308 307 306 306 306 309 312 315 315 314 312 311 311 311 313 319 315 311 313 311 313 321 322 315 314 313 313 312 313 314 313 313 314 314 313 313
301 301 301 301 301 301 302 307 308 309 313 311 306 308 314 317 316 315 317 317 318 318 315 315 315 315 315 314 315 315 315 315 313 313 315 314 313 313 313 314 313 314 316 315 314 314 312 310 308 305 303 305 309 312 310 308 308 310 313 311 311 313 312 312 314 316 317 316 311 308 311 313 314 315 313 312 312 312 313 313 313 313 312 312 313 314 314 313
300 301 301 301 301 301 301 303 305 309 312 309 307 311 314 315 315 316 318 317 316 315 314 314 315 315 314 315 316 314 313 317 316 313 313 313 313 316 319 318 315 315 316 314 313 314 314 312 308 308 307 303 307 313 313 311 310 310 312 310 311 313 311 312 314 315 316 314 310 308 309 312 313 311 311 312 311 312 312 312 312 311 311 311 311 312 314 314
300 300 301 301 301 301 301 301 303 308 311 307 308 313 314 313 314 315 316 315 314 314 314 314 314 315 315 315 315 314 314 317 315 314 314 313 313 316 318 317 314 313 313 312 312 312 314 316 311 310 308 304 305 308 308 309 310 311 312 310 311 312 310 312 314 314 316 315 310 308 309 313 312 311 314 312 310 312 311 311 311 310 310 309 309 310 312 314
300 300 300 300 301 301 302 301 303 309 310 308 311 315 314 313 313 313 314 315 314 314 314 314 315 317 316 314 313 313 313 314 314 315 315 314 313 314 315 316 314 313 312 313 313 311 313 316 310 304 303 302 304 305 302 307 312 310 310 310 310 309 308 313 314 312 313 313 311 309 313 316 313 311 313 310 310 311 310 311 311 309 309 308 308 308 309 311
299 300 299 300 301 301 302 301 303 308 309 309 313 315 314 313 313 313 314 314 312 312 313 315 317 318 316 314 314 313 312 313 315 315 313 313 314 313 313 314 312 313 313 312 312 311 312 314 308 303 303 301 302 303 302 306 311 309 308 310 310 306 305 311 313 310 309 310 312 312 313 314 312 313 313 311 312 312 311 311 309 308 310 309 309 309 308 309
299 300 299 300 301 302 302 302 304 307 307 310 315 315 313 312 312 313 313 312 312 311 311 313 314 314 313 312 313 314 313 313 315 314 312 314 314 313 314 313 310 311 312 309 309 311 312 312 308 306 307 303 299 300 302 302 305 308 309 309 309 306 306 309 311 311 311 312 312 311 311 311 310 313 315 312 312 313 312 312 310 310 311 310 310 311 310 310
299 299 299 300 301 302 302 303 305 307 308 311 314 314 313 312 310 311 311 310 311 311 311 311 312 313 313 312 312 313 313 312 313 312 312 313 314 313 313 312 309 308 306 305 308 310 312 314 310 305 306 304 300 302 308 305 302 306 307 306 308 311 311 310 309 310 311 312 313 312 311 311 310 312 313 311 311 311 311 311 311 311 311 312 312 312 312 312
298 299 302 304 302 302 302 303 305 307 309 312 314 313 313 312 310 309 309 309 310 310 310 311 312 311 311 312 312 312 312 311 311 311 311 313 314 313 311 311 310 307 303 304 309 311 311 314 313 306 304 305 304 306 313 311 304 303 304 305 307 309 311 311 310 310 310 311 312 312 310 311 313 313 312 311 310 310 309 310 311 310 309 311 311 311 311 311
298 301 305 305 303 302 301 301 305 309 311 312 313 311 309 311 311 308 307 309 311 310 310 312 312 310 310 311 310 310 310 311 310 309 310 312 312 313 311 311 313 309 303 304 309 310 311 314 315 308 304 307 309 310 313 315 311 307 307 308 307 307 309 310 311 309 309 310 311 310 310 310 313 313 310 310 310 310 310 310 311 309 308 309 309 309 309 309
299 303 306 304 302 302 301 303 307 309 311 312 310 310 309 309 310 309 307 307 309 310 309 310 311 311 310 310 310 310 310 311 310 309 310 311 310 311 310 308 310 311 306 306 309 309 310 313 314 310 308 311 314 309 306 309 311 309 309 310 310 310 310 310 311 310 308 310 311 310 310 310 312 312 310 309 309 309 309 310 311 309 307 309 308 308 309 309
302 306 306 303 301 300 301 306 308 307 309 310 309 308 308 307 308 310 308 307 307 308 308 309 310 310 310 310 310 310 309 310 310 309 310 311 311 312 308 303 304 307 306 308 310 307 306 308 310 311 312 312 310 303 299 302 306 307 307 308 308 310 310 310 312 311 310 311 310 309 309 310 311 311 310 310 309 308 308 308 308 308 308 309 309 309 310 309
304 305 302 300 299 299 303 308 310 308 308 308 306 306 306 306 308 309 308 307 307 308 309 308 308 310 310 310 309 309 309 309 310 311 310 310 311 311 305 301 303 306 307 310 311 306 306 309 311 311 313 310 305 301 300 301 305 307 308 308 307 309 309 309 309 309 308 310 309 309 309 310 311 311 310 309 308 308 308 308 307 307 308 309 309 309 310 310
300 300 299 299 299 301 305 308 310 310 309 307 306 307 306 306 307 307 308 308 308 308 309 308 308 309 310 309 308 309 309 308 309 311 310 309 310 306 302 302 304 306 308 310 309 307 308 312 311 310 311 311 309 308 307 305 306 307 308 309 308 308 308 307 307 308 308 309 309 309 309 309 312 313 311 309 309 309 309 309 309 309 309 310 310 310 310 310
300 302 303 302 301 303 306 307 308 308 310 309 308 307 307 306 306 306 307 308 307 307 308 308 308 308 308 309 308 308 309 308 308 310 309 308 310 306 302 303 303 305 307 305 304 306 310 310 309 309 311 311 311 313 313 311 309 307 307 308 309 309 309 308 309 310 309 309 310 310 309 309 310 312 311 310 311 311 310 310 310 310 310 310 310 310 310 310
302 304 305 304 303 304 306 306 306 306 307 308 308 307 307 307 306 305 305 307 307 307 308 307 307 307 308 309 307 307 308 308 308 309 307 308 310 307 303 302 302 304 304 302 302 306 309 309 309 311 311 310 310 311 312 311 310 309 309 310 310 310 310 308 309 309 309 310 310 309 309 310 309 310 311 310 310 310 310 309 310 309 310 310 310 310 310 309
301 303 304 304 303 304 306 306 305 306 306 307 307 307 306 306 306 305 305 306 306 306 307 307 306 307 308 308 307 308 308 308 309 308 307 307 308 307 304 302 302 302 301 302 303 305 307 309 310 310 310 310 309 310 311 310 310 310 310 311 311 311 310 309 309 309 309 309 310 309 309 310 309 309 309 309 308 309 308 308 309 309 309 309 309 309 309 309
302 302 302 301 302 304 306 304 303 305 306 306 306 306 306 306 306 306 306 306 306 305 306 307 308 308 309 308 308 309 308 308 309 308 307 308 308 308 306 304 303 302 301 302 303 303 306 309 309 309 310 311 310 311 311 310 310 309 310 310 310 311 311 310 309 308 309 309 308 308 309 309 308 307 308 308 307 307 308 308 308 308 308 308 308 308 308 308
300 300 300 300 301 302 302 302 302 303 304 305 306 306 306 306 306 306 306 306 306 306 306 306 308 309 309 309 308 309 308 308 309 309 308 308 309 308 308 307 305 301 301 303 303 302 306 310 309 308 309 310 310 310 310 310 310 309 310 310 309 309 310 310 309 309 309 309 308 308 308 308 307 307 307 307 307 307 307 307 307 307 308 308 308 308 308 308
298 298 298 299 299 300 300 301 302 302 303 304 305 305 305 306 306 306 306 306 305 306 306 306 307 307 308 308 308 308 308 307 308 308 308 308 309 308 308 309 307 303 302 305 305 303 306 310 309 306 308 309 308 308 310 310 309 309 309 309 308 308 309 309 308 308 308 308 308 308 308 308 307 307 307 307 307 307 307 307 307 307 308 308 308 308 307 307
296 296 297 297 298 300 300 300 301 301 302 303 304 305 305 305 305 305 305 305 305 305 305 306 306 307 307 307 308 307 306 305 305 306 305 306 307 307 307 308 307 305 305 306 306 305 306 308 307 306 307 307 306 307 309 309 308 308 309 308 307 307 308 308 308 308 308 308 308 308 308 308 307 308 307 307 307 307 307 307 307 308 308 307 307 307 306 306
295 296 296 296 297 298 299 300 301 301 301 303 303 304 303 303 304 303 303 304 305 303 302 303 304 305 305 306 306 304 303 302 302 303 303 304 304 305 305 306 306 306 307 306 306 306 306 307 307 307 307 307 307 308 309 307 308 308 308 307 307 307 307 307 307 307 307 307 308 307 307 307 307 308 308 307 307 307 307 307 307 307 307 307 306 306 306 306
Wind_Speed
15 15 15 15 15 14 13 13 12 11 9 9 9 8 8 9 9 9 9 11 12 15 16 13 9 9 9 10 11 11 11 11 9 6 7 8 9 10 9 7 4 3 3 2 1 0 1 1 2 3 4 6 6 5 6 4 4 3 2 3 4 3 1 3 4 3 1 1 3 6 8 5 3 6 8 6 10 13 11 13 16 17 23 23 16 14 13 10
15 15 15 15 15 15 14 14 13 12 11 10 9 9 9 9 10 10 10 10 11 14 15 14 10 7 6 6 7 8 9 9 8 5 9 10 9 9 7 4 2 2 3 2 2 0 3 4 3 5 6 8 8 6 5 4 4 4 3 3 3 2 2 4 6 5 3 3 2 6 6 5 2 5 6 3 6 12 12 15 18 19 24 25 23 22 21 18
15 14 15 15 15 15 15 14 14 13 12 11 10 9 9 9 10 10 10 10 10 12 14 12 10 8 6 6 6 7 8 8 6 6 8 8 7 8 5 1 1 3 3 3 4 3 6 3 2 6 7 9 8 6 5 5 5 4 2 3 1 2 2 5 7 6 6 4 2 4 4 4 1 3 5 3 6 9 11 13 14 21 26 25 24 24 25 25
15 15 15 15 15 15 15 15 15 14 14 12 11 9 9 9 10 10 9 9 9 9 12 11 9 7 7 8 7 7 8 7 3 5 6 7 7 7 3 1 2 4 4 4 4 4 5 3 2 5 6 9 7 6 4 5 3 1 1 3 1 3 2 4 6 4 6 5 4 3 2 3 4 4 5 6 6 6 12 17 18 21 22 19 19 19 22 24
16 16 15 15 15 15 15 15 15 15 15 14 13 11 9 9 9 9 9 8 8 7 9 9 8 7 8 9 8 6 6 3 1 4 6 7 8 6 3 2 4 5 4 4 3 2 3 3 4 6 6 6 5 4 2 4 2 2 4 2 3 3 2 3 4 2 3 4 2 1 1 2 4 7 11 10 6 7 9 12 17 19 16 11 12 14 16 20
17 17 16 16 15 15 15 15 15 15 15 15 15 13 11 9 8 9 9 8 7 7 7 8 7 5 6 10 7 4 3 1 2 6 7 7 7 5 4 4 5 6 5 4 3 1 2 3 5 7 6 4 5 3 3 3 1 2 3 1 3 2 2 2 3 3 2 2 2 2 2 3 3 7 14 17 19 21 13 7 10 14 15 14 13 14 15 17
17 17 17 17 16 16 15 15 15 15 15 15 15 15 14 11 9 8 9 9 7 6 7 8 8 6 6 8 7 4 3 3 5 8 8 7 6 6 5 6 6 6 5 4 1 2 4 5 6 7 6 4 5 2 3 0 2 2 4 1 1 1 2 3 3 3 2 2 5 5 6 6 6 7 9 18 28 30 23 16 14 13 15 16 16 17 19 20
16 17 17 18 17 17 16 16 15 15 15 15 16 15 15 13 10 8 8 8 7 6 6 8 9 7 6 7 6 4 4 4 6 8 7 6 5 5 5 7 8 8 6 5 3 4 5 7 9 7 5 2 2 2 1 3 3 4 4 0 1 1 2 4 3 3 3 4 6 6 8 10 13 11 10 22 32 30 26 24 22 20 19 19 19 20 21 23
15 16 17 17 17 17 17 17 16 16 15 15 16 16 15 14 11 8 7 7 7 6 6 7 8 8 7 6 6 3 3 3 7 7 6 5 5 4 5 6 7 8 8 7 7 7 6 5 5 4 4 4 4 1 1 1 2 2 3 1 1 2 2 3 3 3 3 4 4 5 8 12 15 12 15 28 30 25 25 24 23 22 22 22 21 22 21 21
15 15 16 16 17 17 18 18 18 17 16 16 15 15 15 14 12 8 6 6 6 5 5 6 8 7 6 6 5 2 1 5 7 6 5 4 4 3 4 5 7 8 8 8 8 8 8 5 5 5 6 6 5 2 2 2 1 2 4 3 3 2 2 3 3 3 3 5 6 5 7 12 10 4 9 19 14 11 17 20 20 20 21 21 20 20 19 18
15 15 16 16 17 17 17 18 18 18 18 17 15 15 14 13 12 9 6 6 5 5 5 6 8 7 6 5 3 2 3 6 6 5 5 4 4 2 2 4 5 7 8 9 8 8 9 9 9 7 5 3 2 2 2 2 2 2 3 4 4 4 5 6 4 4 3 4 7 8 9 13 6 3 15 21 11 8 11 15 17 18 19 18 16 16 16 16
16 16 16 16 17 17 17 17 18 19 19 18 16 14 14 13 12 9 6 5 5 5 5 6 7 7 6 4 3 3 5 6 4 4 4 4 4 3 2 2 3 5 7 8 9 9 9 9 8 6 4 3 1 1 1 1 0 1 2 3 3 3 5 8 7 5 5 2 5 5 7 9 6 10 20 19 15 13 11 13 15 16 18 16 13 13 14 16
18 17 18 18 18 17 17 17 17 18 19 19 17 14 13 12 12 10 6 5 4 5 5 7 7 7 6 3 3 4 6 5 4 3 3 3 3 4 4 1 1 2 4 6 7 7 7 6 6 6 7 5 1 1 1 1 1 1 2 1 1 2 3 6 7 5 5 4 5 2 4 4 7 18 20 10 12 15 12 14 15 16 17 15 13 13 15 17
19 19 19 19 19 19 19 19 18 18 19 19 18 15 12 11 11 9 7 5 4 5 6 7 7 6 4 3 3 4 4 3 3 3 3 3 3 4 3 2 2 2 3 3 4 4 4 4 5 5 5 4 1 2 1 1 1 2 1 1 1 2 2 3 3 4 4 4 7 3 2 6 5 12 17 11 13 14 13 15 14 16 16 14 14 14 16 17
20 20 20 21 21 21 20 20 20 19 19 19 18 15 12 10 9 8 7 6 5 6 7 7 6 4 4 4 3 2 2 2 3 4 4 3 4 3 3 3 2 3 4 2 0 2 3 4 4 3 2 2 2 1 2 2 2 1 1 2 2 3 2 1 1 3 2 2 7 5 2 7 7 5 14 15 14 14 15 16 15 17 16 13 14 14 14 13
19 20 20 20 21 21 21 21 21 21 20 20 17 14 13 10 8 7 6 6 6 6 7 6 4 4 4 3 3 3 2 3 3 5 4 3 3 3 2 2 1 2 3 2 2 1 3 3 3 3 3 2 1 2 3 2 2 2 3 3 2 4 3 1 1 3 3 2 5 7 3 6 6 4 11 13 13 15 16 17 17 18 17 15 15 13 12 11
18 19 19 19 20 20 20 21 22 22 22 21 16 13 12 10 7 6 6 6 5 6 7 6 4 4 4 3 2 2 3 5 6 6 5 4 3 2 2 1 0 1 0 1 1 1 3 3 2 3 3 2 3 2 2 3 3 2 3 4 4 4 3 2 1 3 4 3 4 6 6 9 10 9 13 15 16 17 18 18 18 17 18 16 14 13 12 11
17 17 17 18 19 19 18 19 20 21 22 22 18 14 12 8 7 6 4 4 4 4 5 5 3 2 3 4 3 3 5 7 8 7 6 5 4 3 2 2 2 2 2 3 4 4 4 4 2 1 2 3 3 3 1 2 2 1 1 3 5 3 4 3 1 1 3 4 5 5 7 12 13 13 17 19 17 18 20 19 18 16 16 14 13 13 12 11
16 16 16 16 17 17 17 17 17 19 20 20 19 17 12 9 8 4 2 4 5 3 3 3 4 2 2 4 5 6 8 9 8 8 7 6 5 4 4 4 4 3 3 3 3 6 4 3 2 2 3 3 2 3 2 1 1 3 3 4 5 5 4 1 3 1 2 2 6 7 7 11 13 11 14 18 17 18 21 19 17 15 14 14 14 13 12 11
15 15 14 14 15 16 15 15 15 16 18 18 20 17 10 10 7 2 4 9 7 6 6 5 6 6 6 6 7 8 9 8 6 6 5 5 4 4 5 5 4 3 4 2 3 5 2 2 3 3 1 2 3 1 2 2 2 4 5 5 6 6 4 1 3 2 1 1 5 6 7 10 12 12 14 19 18 15 16 15 14 13 13 14 15 14 12 11
14 14 13 12 13 14 14 14 14 15 16 17 18 12 8 9 4 3 11 12 8 9 11 11 10 10 9 9 9 8 7 4 4 4 4 4 4 3 5 7 3 3 5 4 3 3 2 2 4 2 1 3 2 3 3 3 3 4 5 5 5 5 4 2 3 3 1 1 4 6 8 11 12 13 15 16 13 9 10 10 10 12 13 15 15 14 13 12
14 12 12 10 10 12 12 12 12 13 14 14 14 11 11 9 5 6 9 8 12 15 12 11 9 7 7 7 6 5 4 2 3 4 4 4 4 4 5 6 3 3 3 3 3 2 2 3 2 2 2 3 3 2 3 2 3 4 4 4 5 4 2 2 2 3 2 1 4 6 8 11 13 14 14 10 6 5 6 7 8 9 12 15 16 14 13 13
16 14 12 9 8 10 10 10 10 10 11 11 12 12 12 12 8 9 7 5 11 11 7 5 2 2 4 2 2 4 4 2 1 2 3 3 4 4 4 5 5 4 3 4 4 3 4 3 2 1 2 3 2 1 1 3 3 4 5 4 4 2 1 1 2 3 2 2 3 6 6 9 11 10 8 4 2 4 6 8 9 10 9 10 13 14 14 14
16 16 14 10 7 7 8 8 8 9 9 9 11 11 12 13 10 10 8 5 5 3 2 2 1 1 2 2 4 5 3 2 1 2 4 3 3 3 3 3 3 4 4 4 5 4 3 2 1 2 2 1 0 1 1 3 3 4 4 2 3 2 2 2 3 5 2 1 2 5 5 6 6 4 4 2 2 5 7 9 10 12 11 9 10 13 14 14
15 15 16 13 8 6 7 6 6 9 8 8 10 11 12 12 11 11 7 3 3 1 1 2 2 2 3 3 5 5 3 2 2 4 5 3 3 2 1 1 1 2 2 1 2 3 2 1 0 2 2 1 0 1 2 2 2 3 1 1 2 3 3 3 6 6 3 3 3 2 5 6 4 4 7 4 2 5 6 8 9 12 14 14 14 15 15 15
14 14 15 14 10 7 5 4 6 8 7 7 10 11 12 12 11 10 5 1 2 1 2 2 1 2 4 5 6 6 2 1 4 5 3 2 3 2 1 1 2 0 1 2 1 1 0 1 1 1 1 2 1 2 2 5 2 2 1 1 2 2 2 3 5 4 1 3 4 3 2 6 5 5 9 5 3 7 5 6 9 11 13 16 19 18 17 17
13 14 14 14 12 8 3 4 7 7 6 7 9 10 11 12 11 8 3 1 2 0 2 2 2 1 4 8 7 4 1 3 5 3 1 1 1 2 2 1 1 0 0 1 1 1 2 1 1 1 1 2 2 3 3 5 4 2 4 2 1 0 1 2 2 1 3 3 3 3 4 3 6 6 7 3 4 9 7 7 8 10 14 15 17 17 17 17
13 13 13 12 11 8 4 4 6 6 6 7 9 9 11 12 9 5 2 1 1 1 1 1 2 3 6 10 6 1 2 4 3 1 2 2 1 1 2 2 1 0 0 2 2 2 1 2 2 1 1 3 2 1 3 1 2 2 4 2 0 1 1 1 1 3 3 3 4 4 4 2 6 6 4 4 4 8 8 8 7 10 14 15 14 14 15 16
14 13 12 11 9 7 5 5 5 6 7 7 8 9 10 11 6 2 1 1 1 2 1 1 2 4 9 8 2 1 2 3 1 4 5 2 2 1 2 3 1 1 0 2 2 1 2 1 0 0 1 1 1 3 4 3 1 1 2 2 1 2 2 1 2 2 1 1 5 7 6 4 5 6 4 2 2 7 5 4 5 8 13 15 14 14 15 16
14 13 12 11 8 5 5 5 5 6 6 7 8 9 10 8 3 2 1 2 1 2 1 2 2 6 9 4 1 1 1 1 2 6 5 1 2 2 2 2 1 1 2 1 1 1 2 2 2 3 1 1 2 1 3 3 2 2 2 2 2 2 1 1 2 1 0 2 6 6 5 3 3 6 5 2 3 4 1 2 2 4 8 12 13 14 16 18
14 13 12 11 9 5 4 4 4 5 6 7 7 8 8 5 0 1 2 1 2 1 1 2 2 4 5 2 1 3 2 1 4 5 3 1 1 1 1 1 1 2 2 1 1 1 2 2 2 2 2 1 1 1 2 3 2 3 2 2 3 2 1 1 0 1 1 4 4 3 2 2 2 6 5 2 3 1 2 1 2 2 4 8 11 14 16 18
13 12 12 12 9 6 4 4 4 5 5 6 5 5 4 2 1 3 3 2 2 1 1 1 1 2 3 1 1 2 2 2 3 3 1 1 2 2 1 0 1 2 2 1 1 0 1 1 1 2 2 3 2 2 2 2 2 3 3 2 1 1 1 1 1 1 3 4 3 1 2 1 4 8 9 10 11 8 4 2 2 0 1 3 6 10 14 17
12 12 11 11 10 8 6 5 4 4 4 4 4 3 1 1 2 3 2 2 1 1 1 1 2 3 2 2 1 1 1 2 2 1 1 1 1 2 2 3 2 1 2 2 3 2 1 2 1 1 1 3 2 1 1 2 1 0 1 0 1 1 1 3 3 3 3 2 3 2 1 0 4 7 8 10 10 7 4 2 2 3 5 6 6 7 10 14
13 12 11 11 10 8 6 5 4 3 4 4 3 1 1 2 2 0 1 2 1 1 1 1 3 3 1 1 0 0 0 1 2 2 1 1 1 2 3 3 3 1 2 1 2 2 1 2 2 1 1 2 2 2 2 1 1 3 1 2 1 1 1 3 2 2 3 1 2 2 1 3 4 3 4 6 8 7 5 5 6 7 7 7 8 8 10 12
14 12 11 11 9 7 6 4 4 3 4 3 1 1 2 3 3 0 0 1 0 1 2 1 1 2 1 1 0 0 1 0 1 2 1 1 1 2 1 2 2 1 1 0 2 1 1 2 1 1 2 1 1 1 2 0 1 3 1 3 1 1 1 2 1 1 1 2 2 2 2 4 4 6 9 10 11 10 8 6 5 5 6 6 8 9 10 13
14 13 12 11 9 7 5 4 4 4 4 2 1 3 3 2 2 1 1 1 1 2 4 2 2 2 1 0 1 1 1 1 1 2 1 1 2 2 0 1 2 2 1 1 0 2 0 2 1 2 3 1 1 0 0 1 0 1 2 0 4 3 2 2 2 1 2 1 3 3 3 5 3 7 10 7 6 7 4 1 2 3 4 5 8 10 9 10
12 12 12 12 9 7 4 3 4 5 4 2 2 3 2 1 1 1 1 0 1 1 3 2 0 1 1 1 1 0 1 0 1 1 1 2 1 0 0 0 0 1 2 0 1 1 1 2 2 1 2 2 2 1 1 1 0 2 1 3 3 1 2 0 1 3 2 3 4 3 4 5 2 4 6 4 5 6 2 1 0 2 3 5 9 11 11 9
11 12 12 11 8 6 4 3 4 5 3 1 3 4 1 2 1 2 2 1 0 1 0 1 1 1 0 2 1 0 1 1 2 2 1 2 1 1 1 1 1 1 2 3 1 1 2 1 3 1 1 1 1 0 2 2 1 1 2 3 1 1 1 0 0 1 2 3 4 2 4 4 3 3 5 6 6 5 5 4 5 7 7 9 11 11 11 11
11 10 8 7 5 5 4 3 4 5 3 1 4 4 1 1 1 2 1 0 0 0 1 2 2 1 1 1 1 1 2 1 2 2 1 1 0 1 2 1 1 1 2 3 1 1 1 1 2 2 1 0 1 0 1 1 0 1 3 3 1 2 2 2 1 1 1 3 5 3 3 3 3 5 4 3 4 6 8 9 9 11 13 13 12 12 12 12
9 6 5 5 4 4 3 2 4 4 3 2 3 2 0 0 1 3 1 1 1 1 1 2 1 1 1 0 1 1 1 1 2 1 1 1 1 1 2 1 1 1 2 2 1 2 1 2 2 2 1 1 0 2 3 2 1 1 1 1 1 1 1 1 1 2 2 3 4 4 4 4 4 3 1 2 6 7 8 9 8 12 17 16 14 15 14 13
6 3 4 4 4 5 3 2 4 3 2 2 1 1 0 1 0 2 2 1 1 1 1 2 1 1 1 0 1 2 1 1 3 2 2 2 1 1 1 1 1 1 1 2 1 2 0 1 1 1 1 2 2 1 1 1 2 2 2 2 2 2 1 1 3 2 2 2 3 4 6 4 3 6 6 4 6 7 9 8 7 14 20 20 20 18 16 17
3 2 4 5 6 6 4 3 3 2 2 2 1 1 1 2 1 2 2 1 1 1 1 2 3 2 1 2 3 1 1 2 3 3 3 3 3 1 2 2 1 1 1 0 0 0 1 1 1 3 4 3 1 1 1 0 1 3 2 0 1 1 1 1 4 2 1 3 3 3 6 5 4 7 8 7 7 8 11 10 10 17 22 23 24 22 19 22
3 7 10 10 9 6 4 4 2 2 2 1 0 1 0 2 1 1 1 2 2 2 0 1 3 3 3 3 2 1 1 2 4 5 3 2 1 1 2 2 1 1 1 0 1 1 1 1 1 3 4 1 1 1 0 2 1 1 1 1 1 1 0 1 2 1 1 5 5 4 7 5 3 5 6 7 9 10 14 15 15 19 23 23 24 23 24 27
7 12 12 10 7 5 4 3 2 3 2 1 2 1 1 2 2 2 1 3 4 2 1 2 2 3 3 1 2 1 2 1 3 3 1 1 1 1 2 1 0 1 2 0 0 2 1 0 1 2 4 4 2 1 2 3 2 1 2 2 3 4 1 1 1 0 2 6 5 5 9 6 2 5 8 11 14 13 15 19 19 19 22 24 24 27 30 30
9 8 6 4 2 4 3 3 2 1 1 2 1 1 2 2 4 5 3 3 6 4 2 1 0 1 1 3 2 2 2 2 2 2 1 1 1 1 2 1 2 2 1 0 0 1 0 2 1 1 2 4 3 1 1 1 0 1 1 1 3 5 5 2 1 2 5 5 5 5 10 10 6 6 10 14 15 14 16 21 23 22 24 27 28 30 31 30
6 3 1 2 2 1 3 4 4 3 0 1 1 1 2 2 3 4 4 4 6 5 3 2 1 1 1 1 1 3 3 4 4 2 2 2 2 0 2 2 2 1 0 0 1 2 0 3 3 5 6 6 5 4 1 2 3 3 3 3 4 5 6 4 1 5 6 4 5 9 11 15 14 9 10 14 14 15 18 21 25 27 27 29 31 32 32 32
3 2 1 2 3 1 1 6 6 4 3 3 1 1 1 2 1 1 4 3 2 2 2 3 2 2 2 2 3 4 5 5 6 5 5 4 3 1 1 1 1 1 1 1 2 2 0 4 4 7 8 8 8 7 5 4 5 6 7 8 7 5 6 7 7 10 5 4 10 14 9 13 17 11 10 15 17 17 18 21 27 31 32 33 34 33 33 33
3 2 3 2 2 0 2 5 7 6 5 4 2 1 1 3 2 1 3 2 1 0 2 3 5 5 5 4 3 3 3 3 3 4 4 4 2 2 1 0 2 2 2 2 2 2 0 4 4 4 8 10 8 7 6 4 5 6 7 9 11 9 9 10 11 13 6 4 14 19 13 15 19 15 13 17 18 18 23 30 34 33 33 35 35 34 32 30
4 5 4 3 3 3 3 4 6 6 3 3 2 1 1 3 4 2 1 1 0 2 4 3 3 5 6 5 2 2 2 2 2 2 1 0 1 1 2 2 1 2 2 1 2 2 1 3 3 2 6 9 7 5 5 5 6 7 9 12 14 13 12 11 12 13 10 11 18 21 20 21 20 14 15 21 24 26 32 38 36 30 30 33 34 33 29 25
4 4 5 7 7 6 5 4 3 4 3 2 2 2 1 3 5 3 1 2 2 3 4 3 5 5 3 2 2 2 2 4 3 2 3 3 1 0 2 2 1 1 0 0 1 2 3 1 0 1 4 8 7 5 5 7 8 8 10 14 15 13 12 12 12 13 12 13 17 19 19 20 14 8 14 25 28 25 27 31 30 26 25 28 29 30 28 27
4 4 5 6 6 4 3 3 2 2 2 3 3 1 0 2 3 4 3 1 1 3 3 4 6 5 3 4 3 3 7 8 6 7 7 5 5 4 3 2 3 2 1 1 1 2 3 1 2 2 3 7 7 4 3 2 3 6 12 17 17 13 10 11 11 11 10 12 15 15 15 16 10 5 11 20 20 15 17 23 26 24 24 26 28 30 30 31
5 4 4 4 4 4 4 3 2 2 1 1 2 1 2 3 5 5 3 0 7 11 11 10 8 6 3 3 4 6 10 12 12 13 13 11 12 12 11 12 11 6 3 2 2 3 4 2 2 1 3 8 6 1 3 3 3 6 11 13 14 13 12 13 11 11 11 10 11 11 12 14 11 7 11 16 15 12 15 20 24 26 29 31 29 28 28 26
Wind_Direction
11 10 8 7 4 2 0 357 354 348 341 340 343 347 351 353 350 347 343 341 341 342 347 347 329 300 288 289 294 297 303 314 324 316 286 269 265 283 286 275 269 249 254 257 281 70 318 285 216 216 228 242 235 226 241 235 233 243 238 233 254 283 338 352 357 18 279 110 116 185 191 188 146 172 208 231 227 232 243 242 238 237 241 238 238 251 249 235
6 7 6 5 3 3 1 358 356 353 349 339 333 335 337 338 338 339 336 337 339 344 353 360 357 341 318 308 301 302 308 314 323 296 261 261 274 292 291 277 250 222 224 186 148 87 280 267 215 220 235 243 225 208 226 210 215 230 247 260 263 345 14 0 5 21 15 35 123 171 199 228 128 148 194 219 229 222 234 246 241 241 247 245 239 241 246 243
359 360 0 1 1 1 360 358 356 354 352 346 336 329 331 331 329 331 331 335 339 346 356 359 359 355 343 327 313 314 321 327 320 272 258 268 285 299 296 276 200 190 189 173 173 208 251 257 190 223 243 251 215 196 224 194 211 232 244 273 282 7 15 37 24 36 38 22 71 126 184 233 186 142 166 211 253 223 223 233 227 234 242 246 245 241 243 246
352 352 354 355 356 356 356 356 354 352 351 348 342 330 324 324 325 325 327 336 341 348 357 355 349 343 343 331 314 319 328 336 313 250 263 286 291 294 279 225 179 172 165 166 176 181 198 199 233 245 254 267 229 197 215 181 192 253 222 259 21 12 348 44 29 31 43 33 37 83 133 248 229 191 190 221 262 246 236 232 221 231 244 249 250 247 244 246
353 351 350 350 351 352 352 352 351 349 347 345 344 338 324 317 320 324 324 333 341 349 355 353 346 335 347 344 319 311 326 354 334 268 288 296 287 278 243 204 185 175 163 173 182 163 180 210 254 261 252 267 256 216 174 152 173 280 245 274 24 4 331 35 21 353 28 32 4 121 122 265 209 207 222 219 232 235 232 234 226 230 243 242 232 235 237 239
1 357 353 351 350 350 350 349 347 345 344 343 342 340 333 320 314 320 323 327 336 344 349 353 352 334 339 350 341 316 325 16 312 304 310 305 288 266 224 197 191 185 184 195 195 199 245 250 246 258 256 264 281 272 100 123 212 274 255 356 33 313 280 359 358 303 320 2 303 262 284 278 217 249 239 221 233 240 235 239 231 221 226 227 221 221 223 228
4 2 359 356 353 351 350 346 344 342 341 341 338 338 337 329 316 315 321 325 331 338 343 349 352 340 322 342 354 328 292 265 294 311 319 313 295 273 230 200 197 197 205 215 213 258 277 272 252 270 283 272 291 308 87 234 216 221 269 221 123 251 254 285 306 282 267 259 276 294 297 273 234 261 254 230 241 248 245 248 250 243 238 238 238 234 229 229
0 2 1 359 357 355 353 347 343 340 338 337 335 336 335 334 323 312 317 322 329 335 340 346 351 350 333 337 350 317 255 259 303 319 325 321 307 285 245 212 202 205 213 214 210 245 272 276 264 276 290 272 325 351 69 295 206 196 271 12 128 256 244 269 284 280 283 266 282 295 277 264 248 255 270 252 251 255 252 250 251 254 256 255 254 250 246 243
355 356 357 358 358 358 355 351 346 341 336 332 331 332 333 335 328 315 313 317 326 332 336 342 347 352 344 340 345 314 230 290 322 328 334 333 322 293 253 229 217 216 219 219 213 217 231 275 282 285 305 307 317 323 120 286 208 203 301 8 179 216 204 262 273 258 280 273 286 294 266 266 260 256 268 261 260 262 256 253 252 249 250 249 249 251 253 253
353 352 352 353 355 357 356 353 350 344 336 330 328 329 331 334 331 319 310 315 323 330 336 340 346 351 345 340 335 310 280 315 322 332 343 349 340 309 255 237 232 229 227 231 229 224 227 257 288 285 295 294 285 255 144 184 275 329 306 285 251 228 220 243 256 241 269 277 248 245 268 271 264 234 260 261 265 263 246 243 242 239 240 243 245 249 253 254
354 353 351 350 352 354 354 353 351 348 338 329 325 325 328 330 330 323 313 317 322 329 338 340 343 344 341 337 308 282 314 313 314 331 346 5 5 344 260 239 237 233 236 239 236 236 237 248 267 275 288 302 274 224 208 224 289 315 282 277 240 221 245 224 228 242 243 286 241 227 264 268 255 205 251 254 254 248 231 229 231 233 239 246 250 250 251 251
351 351 350 349 350 351 352 351 352 351 341 331 324 322 325 326 326 324 314 317 323 330 340 339 338 340 340 328 266 281 315 313 317 340 355 9 13 14 1 246 238 238 243 243 240 239 239 249 260 260 264 298 318 173 213 203 238 283 253 287 223 205 253 209 199 213 192 251 234 222 278 263 204 218 252 258 248 240 230 229 230 232 240 247 250 247 247 249
343 344 345 345 347 349 350 349 350 351 345 334 326 321 320 321 323 322 310 306 316 322 331 332 326 327 329 299 251 285 303 308 325 352 5 4 9 15 17 6 266 287 264 255 252 240 233 243 237 238 257 278 313 153 200 119 133 241 194 242 283 283 269 184 175 174 173 233 222 191 309 271 211 226 244 255 229 226 225 233 233 231 235 238 242 245 247 250
337 338 338 338 340 344 347 347 347 349 347 340 330 323 318 316 319 318 307 296 300 310 317 319 316 314 302 270 275 290 289 308 332 350 0 0 7 10 20 33 26 358 327 282 255 232 225 231 215 229 260 256 213 169 193 132 200 273 189 192 211 267 275 144 153 160 166 219 193 163 268 271 280 232 228 225 214 212 218 232 236 233 230 232 244 248 250 255
332 333 334 334 334 337 341 344 344 346 348 345 336 326 319 314 316 316 303 291 296 303 305 306 303 293 282 267 274 302 301 308 324 335 339 349 355 354 12 22 23 25 18 23 216 231 214 203 206 225 233 188 162 211 235 186 206 248 247 261 204 204 228 141 136 170 194 235 186 176 245 274 302 206 200 211 212 212 222 234 237 233 231 242 255 250 248 253
326 328 329 330 330 332 336 338 341 343 347 348 340 328 321 314 312 311 297 290 296 301 301 300 287 270 279 262 252 285 293 293 316 318 308 316 334 332 340 354 21 27 27 52 64 87 170 182 213 224 181 153 184 236 273 264 242 215 201 266 248 207 215 176 253 231 242 288 206 205 242 288 292 189 194 212 223 225 229 236 236 235 241 254 259 245 237 234
321 323 324 326 326 329 332 334 337 340 345 348 344 333 324 318 314 304 291 289 290 299 300 289 273 264 259 244 239 253 267 289 303 296 281 276 279 289 294 260 210 307 37 18 317 167 178 212 249 222 194 220 232 209 319 298 268 235 192 256 265 233 233 225 274 257 237 250 224 211 231 262 268 261 255 251 244 234 230 238 239 241 248 254 249 233 226 225
319 320 322 323 323 325 329 333 333 335 342 347 352 348 333 326 323 305 287 292 291 297 297 273 257 266 246 235 228 235 271 291 293 284 265 251 248 249 239 210 225 242 228 269 252 206 201 214 211 235 215 218 220 188 192 242 251 319 244 266 289 283 263 249 192 227 220 216 229 230 244 260 268 271 270 267 255 236 234 242 243 244 249 249 237 224 221 224
318 320 323 324 323 324 328 332 332 334 337 342 353 353 339 333 326 295 257 324 314 293 289 238 211 232 269 253 242 255 283 294 290 280 259 241 237 236 224 212 216 208 229 264 200 186 195 193 191 255 245 215 193 190 215 242 266 298 291 271 285 293 280 265 110 179 225 216 235 237 244 264 276 280 277 278 270 249 245 248 242 238 243 244 234 223 222 225
317 317 321 325 325 325 329 334 335 336 336 342 351 353 353 350 337 262 313 321 304 276 279 264 240 258 273 268 267 280 293 295 286 271 248 239 234 234 215 194 195 204 230 227 160 180 187 213 224 213 251 327 23 8 297 298 271 282 292 278 268 271 271 100 106 220 240 271 256 253 260 272 281 283 281 283 279 258 249 250 240 233 238 240 233 223 220 223
326 317 316 321 324 326 329 335 337 341 344 346 348 360 30 18 3 316 326 321 305 292 288 284 277 272 266 269 283 296 299 290 276 260 247 245 225 214 197 181 177 206 219 198 147 164 164 226 237 171 19 330 331 335 344 320 293 284 278 284 283 268 262 82 95 240 199 42 279 305 310 287 281 279 277 281 276 253 241 244 239 237 238 237 229 218 212 217
345 331 318 315 323 327 328 334 338 344 348 345 350 22 44 26 9 340 333 309 299 302 296 294 293 286 280 275 286 303 295 271 260 253 256 251 224 210 194 190 212 213 187 166 147 170 208 217 198 110 320 284 254 327 2 315 292 280 259 280 292 277 289 44 67 239 193 172 284 333 328 290 281 278 276 274 258 247 247 239 236 237 237 230 218 207 206 216
355 349 335 319 322 328 327 332 336 342 349 352 8 29 26 10 360 346 336 285 291 300 297 307 329 323 314 306 324 325 302 272 229 242 274 259 225 230 220 215 242 232 184 176 185 219 235 205 134 119 290 281 220 105 333 265 253 244 235 245 265 295 27 263 303 285 220 177 290 312 302 283 283 277 275 267 224 261 257 242 241 234 227 218 206 203 209 219
358 355 349 339 328 330 331 330 332 344 355 6 19 25 13 3 357 348 334 272 278 305 315 345 72 11 338 345 344 343 318 296 268 271 295 270 223 239 246 244 269 251 227 206 202 226 238 121 103 235 241 297 263 139 242 259 259 238 218 228 270 339 33 223 312 313 279 85 301 298 302 287 290 298 301 288 242 273 248 233 244 234 219 207 196 200 210 220
359 357 356 353 344 336 332 326 338 350 355 6 13 12 5 359 353 350 340 271 272 277 124 57 58 31 14 348 338 344 318 296 302 295 301 280 229 224 268 262 260 249 237 167 202 253 269 92 131 226 184 101 281 216 188 183 271 284 171 42 333 3 4 314 328 328 339 348 281 357 359 294 298 333 303 278 233 266 227 204 232 230 219 217 214 212 216 222
359 360 1 359 356 350 334 342 357 351 350 1 5 0 355 354 353 352 347 271 275 206 121 44 11 12 11 354 344 345 325 302 324 309 299 285 218 209 297 238 188 218 27 57 26 268 209 85 332 284 163 125 160 241 202 142 140 285 231 284 318 3 357 326 342 352 346 297 261 119 86 272 294 298 273 256 244 265 232 202 230 223 213 220 224 225 226 229
359 0 3 1 1 5 2 350 345 341 347 349 351 352 348 349 351 354 0 254 267 188 110 38 8 348 344 337 335 343 327 310 324 335 17 357 244 214 243 220 157 265 319 64 354 267 121 102 314 311 174 170 188 235 236 151 141 226 223 235 320 20 331 324 6 242 233 295 290 175 161 254 291 271 265 295 290 282 264 231 230 214 211 219 225 227 227 230
359 360 2 2 2 4 2 340 329 337 344 336 341 344 341 344 345 355 20 288 280 86 118 19 22 14 342 334 337 335 302 318 316 351 11 347 331 179 213 285 9 75 120 141 219 267 69 143 200 195 177 211 217 297 323 281 163 199 208 210 111 134 196 206 186 243 258 3 313 245 174 224 275 265 295 345 299 288 272 230 214 208 212 217 221 223 222 225
357 357 358 0 360 356 349 336 327 329 329 327 333 332 333 338 341 18 17 273 35 65 41 12 46 7 342 333 349 174 295 339 350 326 338 339 323 217 213 295 1 113 232 192 210 283 42 79 282 24 206 223 16 8 355 346 317 272 233 242 241 200 217 204 201 253 293 49 262 243 187 197 272 272 288 342 265 271 264 197 178 196 209 216 219 217 214 218
351 353 354 355 355 348 328 320 321 319 319 323 321 323 330 328 335 50 279 247 45 54 33 47 38 342 338 334 68 41 310 38 352 327 323 294 299 286 242 293 339 159 255 182 102 66 87 54 38 47 14 57 97 38 356 353 328 316 297 276 264 225 185 187 206 192 81 247 250 243 193 171 284 278 252 200 216 237 195 103 120 181 203 215 218 214 213 219
345 346 347 348 348 341 314 298 305 311 312 315 314 324 329 318 340 93 225 215 51 36 23 35 7 339 356 33 24 340 5 1 350 346 318 303 310 279 267 288 2 347 291 206 85 88 105 68 72 75 14 21 115 50 358 341 328 334 312 312 319 313 21 36 84 117 182 245 255 288 355 109 217 262 260 274 285 254 87 67 237 206 196 207 214 216 218 225
338 337 338 340 339 334 310 280 284 297 298 300 312 332 336 320 263 231 243 356 18 326 25 48 339 339 349 34 208 325 356 304 340 21 22 356 316 264 267 153 25 357 297 271 310 205 107 71 96 102 42 30 12 321 346 339 341 340 314 333 356 316 340 294 222 167 207 238 237 229 31 85 229 256 271 287 292 283 279 266 224 273 288 238 226 224 224 228
332 331 328 327 328 324 309 284 271 271 278 290 304 332 1 290 255 223 255 325 282 285 41 206 279 298 308 321 252 311 341 257 333 19 175 72 323 294 33 64 62 120 227 324 338 313 331 325 343 52 47 18 8 33 9 342 10 303 277 86 171 223 274 251 237 224 223 247 253 225 68 293 263 266 252 261 280 277 269 288 336 324 302 283 263 239 230 226
326 326 321 317 317 313 306 290 261 247 263 285 301 335 124 225 260 237 290 288 235 257 214 183 294 269 229 2 313 322 313 265 347 342 260 65 19 330 27 43 43 136 202 333 317 264 255 291 322 5 322 332 4 113 152 259 272 238 218 97 155 244 276 249 242 264 262 298 291 286 2 183 208 255 234 245 281 279 277 304 312 305 296 292 278 251 234 225
323 324 316 310 306 299 300 282 249 235 247 263 287 204 184 219 258 320 262 271 3 309 271 172 282 273 272 41 256 337 48 196 314 336 320 13 346 321 1 18 14 52 152 220 289 274 204 232 266 253 253 301 1 112 161 144 308 278 22 71 235 271 319 268 252 255 279 349 292 242 254 219 216 289 287 283 289 279 274 293 296 296 309 316 305 282 257 239
321 320 313 307 299 289 289 265 231 216 232 252 206 220 217 221 243 112 60 314 39 342 321 294 242 269 302 313 277 295 82 162 278 342 5 266 319 338 34 356 345 8 62 151 320 9 260 260 258 216 236 222 176 209 190 145 256 338 36 320 244 192 137 275 302 14 74 314 260 198 245 277 293 298 288 292 307 290 270 258 262 296 322 323 320 317 297 262
320 317 307 300 294 280 269 251 216 206 226 251 226 234 213 182 268 42 60 34 136 302 332 330 324 25 285 280 24 175 153 303 302 347 305 269 300 329 144 4 347 358 5 142 178 110 132 271 264 218 247 219 186 229 307 268 161 97 147 264 279 159 134 202 311 347 1 267 255 183 228 270 262 287 310 357 344 315 304 170 306 7 357 329 332 332 321 302
323 316 304 293 282 263 245 233 202 201 217 261 248 250 176 161 311 51 91 94 226 247 45 229 225 86 334 281 314 120 113 4 346 1 305 267 246 185 140 346 8 45 331 322 325 109 97 322 276 300 357 194 156 58 317 300 218 156 264 294 358 99 266 286 167 318 297 271 283 242 249 262 188 225 295 311 313 336 10 13 7 11 0 351 356 351 335 323
328 322 305 289 271 245 237 230 200 197 210 222 232 244 217 174 172 104 118 280 225 175 197 214 201 92 5 321 6 16 82 65 331 351 314 234 234 133 123 184 272 66 347 334 1 290 77 106 258 285 277 187 56 107 235 302 290 297 329 342 43 161 199 214 202 166 222 271 288 288 284 276 227 227 246 286 340 19 14 359 351 345 346 354 358 348 336 330
335 324 282 277 270 247 245 229 202 196 212 208 204 221 353 58 162 150 186 217 159 171 253 237 156 136 260 301 9 290 151 182 255 254 248 291 3 10 103 98 318 55 355 352 20 303 24 127 214 288 330 347 84 192 196 158 119 118 128 169 228 213 190 248 266 196 193 247 268 278 272 237 247 286 253 55 18 12 355 352 342 324 325 328 325 321 320 323
341 313 269 277 265 255 268 242 210 201 228 231 195 188 322 314 139 134 172 216 251 350 350 320 271 200 248 319 260 242 208 234 228 212 255 242 222 268 221 60 23 125 36 16 353 302 345 147 211 267 291 259 219 191 88 113 137 130 152 188 195 188 165 318 294 243 184 228 250 272 275 250 255 302 307 333 2 355 343 345 325 308 311 311 311 310 308 312
347 266 268 287 286 276 263 229 195 171 239 252 216 111 7 308 301 126 146 229 265 254 10 335 262 236 228 225 232 248 276 265 231 214 232 221 206 215 172 146 110 134 119 62 256 246 116 108 297 257 244 231 179 96 52 225 171 121 128 351 7 349 144 201 267 296 339 295 301 286 278 267 236 263 293 325 343 334 324 320 303 296 300 304 306 305 304 308
309 271 276 289 293 274 228 218 185 165 212 228 142 150 344 301 294 118 155 211 201 188 110 297 254 243 227 208 193 198 213 245 236 224 227 240 247 88 138 165 140 83 72 84 355 24 88 141 251 266 271 322 78 145 343 316 31 96 222 194 158 268 4 142 234 267 308 285 298 297 276 263 248 282 311 324 322 320 312 305 295 289 294 299 300 303 307 308
315 291 290 294 278 225 200 232 222 206 209 72 32 325 234 260 248 218 216 209 199 178 179 224 250 251 237 133 104 215 216 223 247 247 246 275 275 110 121 171 141 38 27 45 343 8 352 187 74 338 313 322 325 347 356 347 33 151 255 194 176 221 263 28 279 192 255 243 222 256 270 254 266 326 325 313 311 312 302 297 293 288 295 299 300 303 306 308
333 305 303 321 251 211 245 299 321 303 116 95 4 268 203 226 228 223 243 247 233 233 234 223 14 292 268 80 93 246 242 191 235 318 22 259 262 126 124 138 133 91 38 125 142 68 177 220 139 147 254 263 260 223 166 335 28 168 221 182 181 202 202 220 281 244 253 236 193 225 267 273 283 307 304 298 301 302 296 298 299 296 297 299 299 301 303 305
336 305 314 20 20 249 295 343 353 320 354 101 280 232 186 203 206 214 233 255 253 255 266 292 20 337 271 115 175 249 239 212 215 258 313 291 289 86 113 123 138 150 212 177 115 91 238 253 205 196 221 234 243 249 278 348 316 290 285 264 233 199 192 192 216 240 254 293 271 243 255 278 286 290 293 294 299 300 299 300 300 300 300 299 299 299 300 302
305 300 32 2 341 326 50 30 17 339 342 351 297 121 160 212 183 195 211 222 271 277 259 249 210 207 221 180 195 229 233 224 216 229 256 260 262 303 74 105 108 163 174 147 153 133 311 274 221 207 236 248 252 266 285 304 280 274 284 278 262 229 192 187 220 248 265 337 282 263 256 275 281 285 292 292 293 295 295 295 296 299 301 301 300 299 298 300
291 333 33 27 333 339 91 33 7 347 352 353 326 47 7 229 194 179 211 219 292 251 231 236 206 216 241 230 216 240 238 229 218 220 229 232 252 4 358 344 85 109 123 137 183 152 225 266 227 206 254 260 253 254 256 253 259 262 266 267 265 252 224 214 233 250 251 238 263 272 276 272 274 281 283 281 283 287 287 288 291 295 298 300 300 299 299 299
333 338 341 339 317 326 343 342 337 327 319 321 299 281 297 251 228 238 170 134 248 217 204 223 224 225 238 243 257 264 258 297 277 239 215 273 325 1 293 281 70 123 120 120 221 183 153 253 235 221 273 276 265 249 241 239 252 261 257 254 255 252 242 239 246 252 246 239 255 270 276 271 272 279 278 274 276 279 282 285 289 293 295 298 300 301 303 305
351 342 338 334 309 291 285 275 308 318 278 245 249 241 246 248 253 282 67 138 250 242 194 228 280 276 270 310 318 289 343 3 349 337 8 7 358 32 240 242 69 76 177 85 258 199 172 221 347 45 313 291 272 257 247 235 234 248 258 255 252 252 251 251 254 257 254 252 261 271 277 275 273 264 264 270 273 275 278 283 288 292 295 300 304 306 310 311
329 319 335 333 309 291 274 241 231 278 258 225 233 248 169 226 275 327 327 245 15 39 42 358 330 324 340 349 342 4 10 5 350 338 340 323 306 318 303 293 349 5 213 201 257 183 175 251 340 31 298 277 274 270 262 252 248 259 262 258 252 250 249 245 246 248 248 257 270 276 274 275 278 257 260 273 277 275 276 283 291 298 305 308 309 310 313 314
338 329 326 319 301 299 297 270 232 237 252 217 238 353 25 351 359 5 323 286 70 51 26 7 354 339 337 343 352 6 356 341 327 320 314 299 291 290 281 278 282 274 230 204 231 202 182 230 272 165 232 269 278 200 140 62 3 278 258 249 242 240 241 244 248 249 245 249 263 267 264 272 287 295 283 285 287 283 283 289 296 302 306 309 313 318 322 325